Location: Caltech
(34.1382°N, 118.1253°W)
Time: 15:13:36
(UTC-07:00)

Cosmos 2084 - Visible Passes

Search period start: 30 May 2016 00:00
Search period end: 09 June 2016 00:00
Orbit: 508 x 680 km, 62.8° (Epoch: 30 May)

Date Brightness Start Highest point End Pass type
(mag) Time Alt. Az. Time Alt. Az. Time Alt. Az.
30 May 5.2 21:57:24 10° N 22:00:32 20° NE 22:01:12 19° ENE visible
30 May 5.7 23:36:13 10° NW 23:37:48 20° WNW 23:37:48 20° WNW visible
31 May 4.4 22:06:01 10° NNW 22:09:53 35° NE 22:10:11 35° ENE visible
31 May 6.2 23:46:10 10° WNW 23:46:47 13° WNW 23:46:47 13° WNW visible
01 Jun 3.4 22:14:58 10° NNW 22:19:09 68° ENE 22:19:13 68° ENE visible
02 Jun 5.7 20:46:29 10° NNE 20:48:31 13° NE 20:50:36 10° ENE visible
02 Jun 3.7 22:24:10 10° NW 22:28:18 61° WSW 22:28:18 61° WSW visible
03 Jun 5.0 20:54:36 10° N 20:57:57 23° NE 21:00:50 13° E visible
03 Jun 4.7 22:33:42 10° NW 22:37:26 31° WSW 22:37:26 31° WSW visible
04 Jun 4.2 21:03:18 10° NNW 21:07:16 40° NE 21:10:01 19° ESE visible
04 Jun 5.7 22:43:48 10° WNW 22:46:32 17° WSW 22:46:38 16° WSW visible
05 Jun 3.4 21:12:17 10° NNW 21:16:30 78° ENE 21:19:17 22° SE visible
06 Jun 4.0 21:21:33 10° NW 21:25:41 53° WSW 21:28:37 19° S visible
07 Jun 5.1 21:31:11 10° WNW 21:34:47 27° WSW 21:38:00 13° SSW visible
08 Jun 6.0 21:41:30 10° W 21:43:50 14° WSW 21:46:13 10° SW visible
